Regional Weather Roundup
Issued by NWS

Home | Current Version | Previous Version | Text Only | Print | Product List | Glossary Off
Versions: 1 2 3 4 5 6 7 8 9 10 11 12 13 14 15 16 17 18 19 20 21 22 23 24 25 26 27 28 29 30 31 32 33 34 35 36 37 38 39 40 41 42 43 44 45 46 47 48 49 50

000
ASUS43 KFSD 191302
RWRSD

WEATHER ROUNDUP FOR SOUTH DAKOTA
NATIONAL WEATHER SERVICE SIOUX FALLS SD
800 AM CDT SAT AUG 19 2017

NOTE: "FAIR" INDICATES FEW OR NO CLOUDS BELOW 12,000 FEET WITH NO
SIGNIFICANT WEATHER AND/OR OBSTRUCTIONS TO VISIBILITY.


SDZ001>005-009-010-012>017-191400-
NORTHWEST AND NORTH CENTRAL SOUTH DAKOTA

CITY           SKY/WX    TMP DP  RH WIND       PRES   REMARKS
BUFFALO          N/A     57  47  69 SW3       29.80S
FAITH            N/A     60  54  80 S18       29.84F
MOBRIDGE       SUNNY     64  60  87 SE12      29.84F
$$

SDZ012>016-024>037-041>051-057-063-072>074-191400-
SOUTHWEST AND SOUTH CENTRAL SOUTH DAKOTA

CITY           SKY/WX    TMP DP  RH WIND       PRES   REMARKS
RAPID CTY ARPT CLEAR     58  51  78 SE5       29.89S
PIERRE         SUNNY     61  57  87 SE8       29.88S
CUSTER         CLEAR     58  43  57 VRB6      30.05S
ELLSWORTH AFB  CLEAR     58  51  75 W5        29.88S
PHILIP         SUNNY     63  55  75 SE5       29.87F
PINE RIDGE     CLEAR     63  53  70 SW6       29.93S
SPEARFISH      FAIR      64  45  48 NW7       29.92S
WINNER         FAIR      66  55  67 S13       29.92S
$$

SDZ004>011-016>023-039-040-191400-
NORTHEAST SOUTH DAKOTA

CITY           SKY/WX    TMP DP  RH WIND       PRES   REMARKS
ABERDEEN       SUNNY     54  54 100 S7        29.92S
WATERTOWN      SUNNY     54  54 100 CALM      29.95S
BROOKINGS      SUNNY     56  55  97 CALM      29.98R
SISSETON         N/A     63  60  90 CALM      29.91S
$$

SDZ017-020-022-023-036>040-048>070-191400-
SOUTHEAST SOUTH DAKOTA

CITY           SKY/WX    TMP DP  RH WIND       PRES   REMARKS
SIOUX FALLS    SUNNY     60  59  96 CALM      29.98R
HURON          SUNNY     58  56  93 SE6       29.93S
CHAMBERLAIN    SUNNY     60  59  96 E6        29.92F
MITCHELL       SUNNY     58  57  97 SE3       29.95S
YANKTON        SUNNY     57  56  96 SE3       29.98S
$$

ABBREVIATIONS USED IN REMARKS
   TC - TEMPERATURE IN CELSIUS
  WCI - WIND CHILL INDEX
   HX - HEAT INDEX
  VSB - VISIBILITY




USA.gov is the U.S. government's official web portal to all federal, state and local government web resources and services.